Wind_Speed
9 9 9 9 9 9 8 8 8 8 8 8 8 9 10 10 11 10 11 11 11 12 12 13 13 12 11 12 15 17 18 19 17 14 13 11 6 5 10 9 9 12 15 15 13 14 13 13 13 12 10 8 7 7 7 7 6 5 6 7 6 7 4 2 1 3 3 3 6 3 2 4 5 3 3 3 8 5 3 5 3 4 6 11 6 15 23 22
9 9 9 10 9 9 9 9 9 8 8 8 7 9 10 10 11 11 11 12 12 12 12 13 13 12 12 13 15 16 18 18 18 16 11 11 8 6 10 11 12 14 16 16 15 16 13 12 13 12 9 6 6 6 6 7 7 7 6 6 8 6 1 5 4 6 5 4 5 3 3 4 6 4 4 6 4 5 6 7 7 7 9 12 13 16 20 21
9 10 10 10 10 10 9 9 9 9 9 9 8 9 10 11 11 11 12 12 12 12 13 14 13 13 12 12 14 14 16 18 16 11 10 10 7 5 7 11 15 17 19 16 15 16 12 11 12 11 10 6 6 6 6 7 7 8 7 6 8 4 4 3 3 3 4 6 6 5 5 5 6 4 4 7 5 8 8 7 8 9 10 11 14 16 19 21
9 10 10 10 11 10 10 10 10 10 9 9 9 10 10 11 12 12 12 12 12 12 13 14 13 12 11 12 12 12 14 15 8 6 10 7 6 5 6 11 17 20 19 13 12 15 11 10 11 11 10 7 7 7 7 7 6 7 7 10 6 5 5 1 1 3 3 6 7 6 6 7 5 4 6 7 7 9 7 7 5 8 11 12 13 15 17 19
8 9 10 10 11 11 11 11 10 10 10 10 10 10 10 11 12 12 12 12 12 12 13 13 13 12 11 11 10 10 11 7 4 11 7 5 6 5 7 13 19 21 17 11 12 14 11 10 10 11 9 7 8 7 9 9 7 7 8 12 9 5 6 1 1 2 3 6 7 7 8 6 6 6 8 8 9 5 2 5 4 4 10 13 13 14 15 16
8 9 10 10 11 11 11 11 11 11 11 10 10 10 10 11 12 12 12 12 12 12 13 12 12 12 11 10 10 8 8 3 6 7 2 4 4 4 9 16 21 20 14 11 12 13 11 11 11 10 9 8 9 8 9 10 9 8 8 11 10 8 8 3 2 4 4 8 8 8 7 6 7 8 7 8 8 6 3 3 2 3 8 13 13 13 14 16
8 9 10 11 11 12 11 12 12 12 12 11 11 10 10 11 12 12 12 12 13 12 12 11 11 11 10 11 9 7 10 7 4 4 2 2 3 8 13 18 21 17 13 12 12 12 11 12 12 10 9 8 9 9 9 9 10 10 9 9 8 7 10 8 7 6 7 9 8 8 8 8 9 8 5 6 9 6 1 1 4 5 8 13 13 13 13 14
8 9 10 11 12 12 12 12 12 13 12 12 11 10 11 11 12 12 12 12 12 12 12 11 10 9 9 10 8 8 10 4 7 4 2 3 8 13 17 18 19 14 13 14 12 11 11 12 12 9 9 8 6 8 7 7 11 12 12 9 6 6 8 9 8 8 9 8 8 9 10 10 10 9 7 8 10 5 1 2 6 7 8 11 12 12 12 13
9 10 11 12 12 13 13 13 13 14 13 13 12 11 11 11 12 12 12 12 12 13 12 11 10 7 7 7 9 8 3 5 8 3 1 7 12 17 18 16 17 14 12 14 11 11 10 10 12 9 8 6 3 7 8 8 8 9 12 11 9 9 8 9 9 10 9 7 7 10 11 10 9 9 9 12 9 1 1 5 5 8 9 9 10 11 10 9
10 10 11 12 13 13 13 13 14 14 14 13 12 12 12 12 13 12 12 13 13 13 13 12 9 5 7 9 10 6 4 7 6 6 6 11 15 17 16 14 16 13 11 11 10 12 9 7 9 6 7 7 4 7 9 9 4 2 8 10 11 11 9 9 9 9 9 8 9 10 12 11 9 7 9 11 6 1 4 6 6 8 9 9 9 9 6 7
10 11 12 12 13 14 14 14 14 14 14 14 13 13 13 13 13 13 13 14 14 14 13 12 6 5 10 9 9 4 6 4 3 7 9 13 16 17 15 13 14 12 10 9 9 10 9 6 5 4 4 4 5 8 10 11 7 5 7 8 11 12 11 11 11 10 8 8 9 11 12 11 9 9 11 8 7 5 6 6 8 8 9 10 10 10 9 7
10 11 12 13 14 14 14 14 15 14 15 15 14 14 14 14 14 15 15 15 15 14 13 9 3 5 10 9 10 4 4 3 4 7 11 14 15 14 12 12 12 10 7 8 9 9 7 5 7 9 4 2 6 6 6 10 9 7 7 9 11 13 13 14 13 10 10 8 5 7 9 11 12 12 16 11 6 6 7 7 8 8 7 9 12 10 9 11
11 11 12 13 14 14 14 15 15 15 15 15 15 14 15 15 16 16 15 15 13 12 11 6 4 6 9 7 6 3 1 3 5 7 11 13 13 11 10 11 10 7 5 5 6 6 7 5 8 12 5 5 6 1 1 7 8 8 9 9 9 10 12 15 13 9 10 7 3 5 6 10 13 16 20 13 7 7 9 9 9 8 6 9 9 8 10 10
11 11 12 13 14 15 15 15 15 15 16 16 16 15 16 16 16 15 12 11 10 10 8 5 6 7 8 6 2 6 4 4 7 10 12 13 12 10 10 10 8 6 5 4 2 4 6 6 9 10 6 8 5 2 4 8 6 9 10 8 8 8 7 10 11 8 8 5 6 8 7 9 10 16 19 11 8 9 10 11 10 9 8 10 7 7 8 9
11 11 12 13 14 15 15 15 15 15 16 17 16 16 17 16 13 10 8 7 7 5 5 7 8 7 7 7 4 7 8 7 10 13 13 14 13 11 11 10 8 7 6 5 3 3 5 7 8 8 7 8 7 4 8 8 7 8 8 7 8 7 4 10 10 8 7 4 8 10 7 8 9 9 13 9 7 10 10 11 11 11 9 13 7 7 7 8
11 11 12 13 13 15 16 16 15 16 17 17 16 17 17 14 9 6 5 3 2 5 8 6 9 9 7 2 5 6 9 11 13 15 14 14 13 11 12 11 9 8 7 6 4 4 6 7 8 7 7 8 7 8 7 7 7 7 7 8 7 8 7 7 10 10 7 2 8 10 7 9 9 6 10 7 9 10 11 12 11 13 8 14 8 7 5 6
11 11 12 13 13 15 16 16 16 16 17 17 16 15 13 10 4 3 3 1 2 6 8 7 5 8 7 0 4 6 11 10 11 16 16 15 14 10 11 11 10 10 9 7 5 6 7 7 7 6 7 6 7 8 7 8 7 7 8 8 8 8 6 4 8 10 7 5 8 9 8 11 10 2 8 8 10 11 13 13 12 13 7 13 9 6 6 9
11 12 12 13 13 14 15 16 16 16 17 15 13 11 10 8 3 0 1 4 5 7 8 7 4 6 6 7 5 4 11 10 9 14 15 15 15 12 11 11 9 10 9 8 8 8 7 7 6 6 7 7 8 8 8 8 7 8 8 8 8 8 8 7 4 8 8 7 7 8 8 11 13 8 4 9 10 11 13 12 12 14 9 12 10 8 10 11
12 12 12 13 13 14 15 16 16 16 16 13 9 8 7 5 4 6 8 8 8 7 3 5 8 4 2 8 6 4 9 10 9 12 13 14 16 14 13 11 10 11 10 7 9 9 7 6 7 7 7 9 11 10 11 11 7 8 6 6 9 7 8 9 3 6 4 6 7 9 9 11 13 13 12 11 9 10 12 12 12 12 11 10 11 8 8 8
12 12 13 13 13 14 15 15 16 15 15 13 10 7 5 4 4 6 8 10 11 10 8 4 10 6 1 5 6 6 7 9 9 11 12 14 16 15 13 11 10 10 9 7 8 9 7 7 8 9 9 11 13 13 15 13 6 8 8 6 8 8 7 7 4 4 2 6 8 9 11 11 13 12 13 12 9 10 11 13 12 11 14 10 11 11 10 10
13 13 13 13 14 15 15 16 16 15 13 11 11 9 4 4 4 1 1 9 14 15 13 8 9 10 5 2 4 5 5 10 12 10 12 14 15 14 11 12 11 9 10 9 7 6 7 8 9 11 12 12 11 12 15 11 5 6 9 8 8 9 9 6 5 4 3 5 8 10 11 12 12 12 12 13 12 10 11 13 14 14 15 13 12 14 14 13
13 13 13 14 14 15 15 16 16 14 10 7 10 10 4 6 5 5 5 8 10 12 13 10 10 10 7 6 5 4 5 10 12 11 13 14 15 13 11 12 12 9 10 11 7 6 7 9 11 12 11 8 6 7 9 7 6 8 9 8 9 8 9 6 6 5 5 5 8 9 10 10 9 11 12 13 14 12 11 13 14 14 15 14 12 12 13 13
13 13 13 13 14 16 15 15 14 12 8 7 10 8 4 5 4 6 6 7 8 9 10 10 10 9 10 10 10 9 9 10 11 13 15 14 14 12 11 12 12 11 11 12 9 7 7 8 13 14 7 5 6 6 6 7 7 9 8 9 9 10 12 8 5 5 6 5 8 9 9 9 9 11 13 14 14 14 13 15 15 14 15 14 13 12 12 13
13 13 13 13 15 15 14 14 13 8 7 9 10 7 3 3 5 7 6 7 6 6 6 5 7 8 6 5 9 14 12 11 11 12 17 15 13 11 11 12 13 12 10 13 12 10 9 3 5 9 7 7 9 8 8 8 7 10 11 10 9 11 14 8 4 5 6 7 10 11 9 9 11 13 14 14 15 15 14 15 15 15 15 14 13 11 12 14
13 13 13 14 15 14 13 12 8 4 6 8 8 5 2 3 4 7 6 6 5 6 7 6 6 5 5 4 7 12 11 11 13 11 17 17 14 10 10 9 10 12 11 14 12 11 12 3 3 5 6 8 11 9 10 9 7 9 11 14 14 13 14 9 8 9 6 8 11 12 10 7 10 15 15 12 12 14 14 15 16 15 14 13 12 12 13 13
13 13 13 13 15 13 9 6 1 2 6 5 2 2 1 3 4 6 5 5 5 7 9 8 7 5 7 7 8 10 10 11 14 13 16 17 16 10 9 7 7 11 12 12 9 6 10 7 7 8 8 9 12 9 11 10 8 8 8 11 13 12 12 11 12 10 7 7 4 6 8 7 8 12 11 8 11 14 14 14 15 13 13 13 13 13 13 13
13 13 13 13 14 12 7 5 5 6 6 2 3 1 2 3 4 4 4 5 4 7 9 7 5 5 6 7 10 9 5 6 12 14 14 16 16 11 10 9 8 10 8 7 7 6 9 6 6 9 10 9 10 8 11 11 8 9 5 4 8 10 11 11 11 9 8 9 4 5 9 9 8 10 9 8 10 11 10 12 14 10 8 7 7 9 12 14
13 13 13 13 12 9 8 9 9 8 1 4 1 1 2 3 4 4 5 4 3 5 6 5 5 4 4 6 11 9 1 6 9 12 14 15 15 11 10 11 10 10 9 7 7 7 10 11 7 9 10 8 9 8 10 11 10 10 4 2 7 10 10 9 9 9 8 9 8 9 11 9 8 10 12 11 10 10 12 9 7 3 3 5 8 10 10 13
13 13 13 14 11 6 7 9 10 8 3 3 2 2 3 4 4 4 5 3 3 4 3 4 5 7 7 7 11 10 4 5 5 8 16 16 15 11 9 11 11 11 11 10 9 5 7 9 8 10 10 7 9 8 7 9 9 9 5 4 8 8 9 9 9 9 9 9 10 11 11 9 8 7 10 10 7 9 8 1 5 4 4 5 8 11 13 13
14 13 12 13 10 5 5 9 12 11 5 3 4 4 5 5 4 5 4 2 4 5 4 5 5 8 10 9 10 11 10 8 4 8 13 12 15 13 8 8 10 11 11 11 12 8 4 4 3 7 9 8 9 10 10 11 10 6 4 6 9 8 9 9 7 8 9 9 11 14 15 12 8 7 6 3 1 1 1 5 4 2 3 5 7 9 14 13
14 13 12 12 9 7 6 5 5 6 5 4 5 5 6 4 4 6 3 1 3 6 6 7 7 8 10 10 8 11 12 9 8 11 11 10 13 13 8 7 7 9 10 10 12 12 7 7 5 7 10 10 9 10 11 11 10 8 6 7 8 8 8 7 7 8 8 9 10 13 15 13 9 7 1 5 7 7 6 4 3 2 2 8 7 8 11 8
15 14 13 13 12 11 11 4 3 1 3 4 5 6 6 5 6 6 3 3 3 5 5 5 6 6 8 7 6 10 11 9 10 11 11 11 11 11 11 9 7 9 10 9 10 11 10 9 9 9 11 11 9 8 8 8 9 9 8 8 8 7 7 7 7 7 7 9 9 8 9 9 8 4 2 6 6 6 6 6 6 6 5 8 6 4 4 1
17 16 16 14 14 15 16 10 6 5 4 6 6 6 5 5 6 4 3 4 2 3 1 2 3 4 6 7 7 10 10 9 11 11 12 13 11 12 15 14 12 10 9 8 9 9 9 10 11 11 10 11 11 8 7 8 9 10 9 8 8 7 7 7 7 7 7 8 9 7 5 7 7 0 5 6 5 5 7 8 6 5 5 6 3 1 2 4
19 17 17 15 14 16 15 11 8 7 6 6 6 6 5 6 4 2 3 3 4 2 2 3 4 6 8 8 6 9 8 9 13 12 12 12 10 10 13 15 17 13 8 8 8 8 9 8 11 12 9 12 14 12 8 8 9 10 10 9 8 7 6 6 6 6 6 6 7 8 6 7 6 3 5 6 7 7 6 5 2 1 1 4 2 2 2 4
15 11 12 12 14 15 15 12 8 6 6 6 6 6 6 6 4 4 3 2 3 2 3 3 6 8 9 7 4 6 6 5 12 12 10 11 10 9 10 13 16 14 9 8 6 7 11 7 8 12 11 12 14 13 12 10 8 8 9 9 8 7 6 6 6 5 5 5 5 6 5 6 1 7 6 6 8 5 3 2 2 4 3 2 3 3 2 4
10 6 7 10 11 11 12 13 9 8 7 6 6 7 6 5 2 0 1 2 2 2 2 5 7 8 8 7 6 8 6 4 10 10 8 11 11 11 11 10 13 15 11 8 5 6 9 6 6 11 11 11 12 13 13 11 7 5 8 9 8 8 7 7 7 6 5 7 6 5 6 6 3 6 6 6 6 5 4 4 4 5 5 4 5 5 3 3
8 6 6 8 7 7 10 12 11 9 8 6 7 6 4 3 1 3 3 3 2 3 6 6 6 5 8 7 7 9 9 6 9 9 7 10 10 11 13 11 12 16 14 10 6 4 6 5 6 10 11 10 11 12 14 14 10 6 6 6 7 9 8 6 6 6 6 7 7 7 9 8 4 1 2 4 4 4 4 5 5 6 6 6 5 4 4 4
10 6 5 6 7 7 10 12 11 9 6 6 7 7 5 1 1 2 3 3 4 3 6 6 2 3 7 6 6 8 8 6 8 8 7 8 6 4 7 8 9 12 14 12 7 4 5 6 6 10 12 11 10 9 10 14 14 11 6 3 5 7 6 6 6 7 7 7 6 8 11 5 2 2 2 3 3 2 3 5 6 5 5 5 5 4 5 5
10 5 4 7 8 8 10 12 10 8 6 6 6 6 6 3 1 1 2 2 4 4 5 5 2 3 7 6 4 4 6 6 7 7 7 7 4 2 6 4 5 7 11 11 7 4 5 6 6 10 11 9 9 8 8 9 12 13 10 6 6 6 4 5 5 5 7 8 6 8 9 1 5 3 3 4 5 4 3 4 5 5 5 5 5 5 5 5
8 4 4 8 9 10 11 10 8 6 6 6 5 2 3 3 2 1 1 3 5 4 4 4 3 4 6 6 4 3 5 5 5 6 5 4 2 1 4 4 4 6 7 7 7 5 5 6 5 7 8 8 7 8 9 9 10 11 10 8 7 6 5 6 5 5 6 6 6 7 5 0 4 2 2 4 5 4 3 5 5 6 7 7 6 6 6 6
7 4 4 9 10 10 9 7 6 6 6 5 4 1 2 0 1 3 2 2 5 4 3 5 5 4 4 5 5 4 4 5 5 6 5 2 3 2 2 4 4 4 5 7 8 5 4 6 6 4 6 8 7 8 11 10 8 9 9 9 10 8 7 7 6 6 6 5 6 7 2 1 2 3 3 4 4 4 4 5 6 7 8 8 8 9 9 8
5 3 6 12 12 10 7 6 4 6 6 2 1 0 4 1 2 2 3 4 5 4 3 4 6 5 4 5 5 2 4 5 5 5 3 2 3 2 1 4 6 5 6 6 5 1 3 4 6 6 7 6 6 7 7 6 7 8 8 8 9 8 8 8 6 5 7 6 6 8 4 4 1 1 3 4 5 5 6 6 7 8 8 8 9 10 10 10
4 3 7 12 12 8 6 5 5 5 3 1 1 1 3 2 3 2 3 5 5 4 3 4 4 4 4 4 5 3 3 4 4 4 1 5 3 2 2 3 6 8 8 3 2 0 3 4 7 7 6 6 6 7 6 7 7 8 8 8 8 8 8 8 4 3 7 6 4 6 4 3 3 2 3 4 6 7 8 9 9 7 7 8 8 9 9 10
4 3 5 10 11 8 5 4 5 5 4 2 4 4 2 2 3 3 4 4 3 3 4 4 3 3 3 3 5 5 3 3 4 3 2 4 5 1 1 1 3 5 3 2 2 2 5 5 7 7 6 7 7 6 7 8 7 7 8 4 6 8 10 7 2 2 6 8 7 6 3 2 3 3 5 6 7 8 9 10 9 8 7 7 7 8 8 9
4 4 5 8 9 7 5 3 3 2 5 4 4 4 4 3 1 4 4 1 1 2 3 4 3 2 4 4 5 7 4 3 3 1 2 0 4 5 4 4 3 2 5 6 4 4 4 3 4 7 7 6 5 4 4 4 4 6 4 3 7 11 12 7 3 4 6 8 8 5 2 4 3 2 5 6 6 8 9 9 8 7 7 7 7 7 8 8
3 4 4 6 6 6 3 2 3 2 4 4 3 3 5 4 4 2 5 2 2 4 4 4 3 3 6 5 5 8 6 4 4 2 2 2 2 5 5 5 6 6 6 7 6 2 3 3 4 7 8 5 4 3 2 5 7 6 6 2 2 8 9 4 5 6 4 4 2 2 5 5 3 1 4 7 8 9 8 8 7 7 7 7 8 8 7 7
2 3 4 5 5 4 3 4 4 1 2 3 2 2 5 4 4 4 4 3 2 4 4 3 4 5 5 5 5 6 6 5 5 3 3 4 1 4 4 3 5 5 3 3 5 2 5 5 3 5 9 8 4 7 3 4 6 6 7 6 3 3 3 2 5 3 3 4 2 4 8 8 5 4 6 8 9 8 8 8 7 7 7 7 6 7 7 8
2 1 4 3 2 4 3 4 4 3 3 4 2 2 4 4 4 4 4 3 3 4 4 3 5 6 4 4 4 4 6 6 4 2 2 3 3 1 1 1 4 3 1 0 4 3 4 5 4 4 8 12 9 6 6 5 6 3 3 4 6 7 7 4 4 6 5 4 1 5 8 9 7 6 8 9 8 7 7 7 7 7 7 7 7 8 9 9
2 1 4 1 1 3 4 2 2 4 3 2 2 3 4 4 4 4 3 3 4 4 3 3 5 6 4 4 5 4 4 4 2 1 1 3 3 1 1 2 2 3 2 2 3 2 2 3 4 4 5 10 10 5 6 8 7 1 4 6 7 7 8 7 7 10 8 2 5 9 10 9 7 6 8 8 7 7 7 7 8 8 9 8 8 9 10 10
2 0 3 2 2 3 5 3 3 4 3 2 3 4 3 3 4 3 3 2 3 3 4 4 5 4 2 3 5 2 1 2 0 2 2 2 2 1 0 2 1 4 4 1 2 1 1 1 2 2 3 6 7 4 4 7 5 2 6 11 10 8 8 8 9 11 9 4 3 7 9 8 5 5 8 7 6 7 8 8 9 9 9 9 9 10 10 10
4 2 2 3 4 3 3 4 3 4 5 3 3 4 3 3 3 2 2 1 3 3 3 4 3 3 4 4 4 2 3 1 2 1 2 2 1 2 1 2 2 1 0 1 1 2 4 3 1 2 3 3 5 6 3 3 5 5 8 13 11 8 7 7 8 10 9 9 5 1 5 5 3 5 7 7 8 9 9 9 8 8 9 10 10 10 10 10
3 2 4 3 3 3 3 3 2 3 4 1 1 3 3 1 2 2 1 1 3 2 0 2 3 4 5 4 1 0 1 4 5 4 3 3 3 3 2 2 3 4 2 2 3 3 3 4 2 2 2 1 4 5 4 5 6 3 6 9 8 7 7 5 8 11 11 10 7 3 5 5 4 5 5 7 9 9 9 9 8 8 9 10 10 10 10 10
Wind_Direction
330 326 323 322 322 321 321 319 319 320 320 319 318 318 316 316 313 313 313 309 309 307 307 305 301 305 308 313 311 313 318 311 301 273 242 242 247 227 240 237 209 189 175 179 182 182 187 198 198 195 207 199 215 227 190 214 237 224 233 238 240 236 253 309 171 46 0 64 61 15 355 311 311 356 338 260 218 217 207 217 162 141 98 78 118 146 141 151
331 327 324 322 320 320 319 317 317 317 317 317 315 314 313 311 311 311 309 308 307 305 307 303 302 308 311 311 311 318 319 304 287 271 240 232 245 247 244 223 199 182 174 185 189 187 188 191 190 191 207 200 202 205 181 203 221 227 233 233 241 239 4 2 359 21 343 345 11 308 322 316 300 346 330 289 246 214 213 196 188 162 120 103 119 136 142 155
333 327 325 322 319 318 317 316 314 314 315 315 315 313 311 310 310 308 306 308 305 306 306 305 308 310 312 312 313 324 319 301 280 253 205 213 248 274 247 205 190 180 178 190 191 192 196 190 186 193 210 209 199 192 188 196 205 228 241 236 241 279 355 7 353 352 329 331 314 297 330 290 282 329 289 291 298 250 221 179 193 179 143 136 140 145 151 160
332 326 324 320 318 317 315 314 312 312 312 313 313 311 311 309 308 308 308 309 306 307 307 308 311 314 318 311 316 331 314 291 270 157 160 209 276 284 238 194 183 179 188 204 199 200 208 196 190 206 220 216 202 203 212 197 198 223 232 244 259 349 315 261 34 326 324 312 296 306 297 271 295 308 275 283 270 245 202 159 204 195 157 148 148 151 158 166
329 324 322 318 316 314 312 312 311 311 311 310 311 310 310 307 307 307 307 307 306 307 307 309 312 320 320 309 320 324 301 283 127 116 146 244 294 271 210 185 177 177 195 219 210 206 215 210 199 212 228 228 201 203 226 207 211 239 233 253 279 321 282 219 63 293 309 290 283 281 271 292 318 277 268 275 270 290 84 141 226 218 157 150 156 158 165 174
329 324 319 316 314 313 311 312 311 311 310 310 310 308 308 306 305 305 305 305 303 303 306 310 316 324 319 308 313 295 275 285 109 118 194 278 284 211 175 175 171 176 201 222 213 207 214 211 202 210 225 233 209 206 229 209 211 246 239 247 262 268 266 286 282 270 287 276 273 276 285 307 289 268 267 265 269 312 27 143 228 224 160 153 160 167 173 178
329 324 319 317 314 313 313 312 312 312 310 310 309 308 306 305 304 302 303 302 300 302 304 308 315 320 318 309 297 253 249 265 126 121 287 255 185 152 158 166 165 178 208 215 205 201 207 205 205 211 220 231 217 214 225 210 213 240 251 247 244 248 261 274 277 273 270 269 276 281 285 281 267 269 273 268 265 271 9 147 211 210 168 154 165 179 180 181
329 324 321 317 315 315 314 314 314 313 311 310 309 309 307 304 302 300 299 299 297 298 297 301 309 313 321 317 292 244 241 250 110 116 288 160 145 143 151 160 168 188 207 207 200 200 205 205 211 214 224 235 216 211 213 218 224 231 249 257 250 247 255 264 265 261 262 265 270 266 265 262 259 272 281 265 253 252 11 219 208 201 172 158 169 177 182 186
328 325 322 318 316 315 314 315 314 314 312 311 312 310 307 304 301 299 297 295 292 291 291 293 299 306 310 298 280 265 221 89 98 117 167 147 147 148 154 163 180 196 201 203 200 204 207 203 215 222 248 262 215 213 214 222 229 223 240 251 250 249 249 254 255 255 259 258 260 260 259 256 254 266 264 244 240 300 259 225 207 198 180 162 165 171 183 172
326 325 322 318 316 314 315 314 314 314 313 313 313 310 307 304 301 299 295 292 287 286 285 286 292 298 288 269 262 268 103 94 104 124 145 155 153 157 167 172 182 197 199 198 202 211 217 217 224 233 268 274 235 229 222 225 254 246 246 256 257 260 259 254 257 257 260 259 255 257 257 254 250 253 245 224 201 256 244 213 204 204 185 165 159 154 129 94
326 324 321 317 314 314 314 314 315 315 315 315 312 308 306 303 300 299 293 288 284 281 278 281 282 273 278 270 261 272 96 109 127 135 160 161 161 169 178 177 182 198 197 192 206 217 225 243 255 241 246 251 230 232 228 233 263 278 264 266 258 259 258 248 249 250 251 252 243 251 261 255 244 240 244 219 162 206 237 210 203 205 190 161 131 112 105 130
324 322 319 316 314 313 313 314 315 314 315 315 310 308 305 302 300 297 292 287 281 276 276 273 239 258 276 265 251 263 80 153 156 146 169 166 169 177 178 180 188 201 199 195 204 213 226 246 250 238 241 287 234 223 228 232 248 260 257 262 255 248 246 237 234 234 238 241 232 256 265 247 232 227 238 229 171 202 224 215 208 205 191 133 110 120 151 180
322 321 318 316 314 312 312 313 314 315 315 313 310 308 304 302 299 295 291 286 278 271 272 251 194 249 268 264 238 210 110 180 167 159 171 173 174 175 177 184 193 204 217 222 200 201 224 240 246 244 253 268 240 129 295 236 236 248 243 253 258 248 241 226 217 218 234 235 202 251 260 241 224 214 228 223 187 209 217 214 214 204 160 108 115 149 175 187
320 318 316 315 313 312 312 312 314 315 313 310 308 306 304 302 298 295 293 289 278 262 252 193 193 239 251 264 189 157 179 164 175 181 176 181 176 171 180 185 196 202 210 235 198 191 221 228 245 253 252 257 271 52 247 235 224 243 240 233 241 256 238 190 185 198 219 191 179 230 251 257 233 204 208 195 180 217 221 212 218 213 154 124 150 167 180 190
318 318 316 313 313 312 312 313 314 315 313 309 307 307 306 301 296 297 302 299 284 245 183 172 205 232 249 245 173 165 193 187 197 194 183 188 183 179 182 184 194 193 197 211 194 198 218 219 227 243 229 233 266 257 232 228 215 226 238 230 222 241 204 148 162 201 219 161 180 222 239 255 260 208 180 156 189 221 229 220 220 226 158 125 161 177 180 195
316 316 314 313 312 311 312 312 313 314 311 307 307 310 307 299 295 306 316 303 279 154 153 193 209 223 272 250 138 166 195 202 208 199 192 195 196 192 177 178 187 184 197 200 195 204 207 215 221 241 234 209 229 241 234 227 217 211 226 244 224 217 213 163 165 194 223 201 190 218 246 254 254 198 146 156 218 219 230 229 222 235 164 126 167 171 164 213
315 315 314 313 311 311 311 311 313 313 310 309 312 314 305 291 287 348 0 156 163 155 190 243 210 215 267 162 157 197 187 193 198 191 195 199 207 205 173 177 185 181 193 190 200 211 194 208 217 234 241 221 219 228 236 228 219 208 207 244 248 231 240 193 155 166 191 224 216 218 243 261 262 193 131 174 222 222 228 227 222 234 180 135 162 158 177 219
315 315 314 313 311 311 310 311 314 312 311 313 317 322 310 288 262 310 251 182 183 196 222 256 233 232 237 196 213 191 164 167 168 176 188 195 204 208 185 186 183 179 193 189 201 207 188 201 211 219 221 217 222 220 228 231 232 230 208 219 239 234 246 244 167 145 173 212 233 232 233 249 259 266 234 202 206 224 231 225 223 230 198 151 158 180 197 209
315 315 316 313 312 310 309 311 312 312 315 320 325 325 313 280 238 236 228 202 191 211 233 184 202 257 95 174 196 115 138 149 155 170 180 186 194 201 196 193 187 187 201 192 189 196 192 201 206 221 219 208 220 221 229 241 265 281 259 228 237 232 231 238 183 127 164 228 235 243 246 248 249 252 255 236 203 213 234 233 225 230 224 182 156 180 203 215
315 317 316 313 312 311 310 311 310 312 317 321 318 294 266 247 232 213 207 213 218 248 289 209 205 246 66 159 166 135 143 163 184 186 177 179 183 191 195 195 194 199 214 199 174 186 199 215 211 218 226 215 218 224 238 257 300 306 288 264 254 256 248 242 191 144 202 256 247 248 252 256 258 255 257 255 226 203 223 238 229 227 237 214 161 167 195 220
316 317 317 314 313 310 310 310 307 311 315 311 300 273 274 337 319 1 252 239 226 236 261 248 229 248 255 228 159 157 182 194 206 192 168 175 181 186 188 192 199 200 218 210 171 178 202 225 226 222 232 230 226 226 237 263 300 271 266 267 254 250 253 238 166 169 212 241 253 253 251 251 253 255 257 260 251 220 212 234 234 227 236 230 189 177 192 210
316 317 318 315 313 311 310 308 306 311 314 288 265 261 312 14 357 342 320 278 245 233 243 238 236 248 243 229 203 212 236 208 202 183 167 177 186 189 180 189 207 200 205 209 180 182 209 232 237 231 234 235 246 245 232 245 256 250 254 260 257 247 247 222 151 177 219 236 256 254 259 260 254 256 255 252 253 241 218 227 237 232 234 236 218 195 193 200
316 318 317 315 314 310 308 308 308 308 293 248 247 265 330 18 347 318 290 283 272 238 228 223 222 226 218 214 202 205 229 218 203 181 172 186 197 200 192 189 211 212 199 206 201 204 219 224 227 228 221 207 228 238 229 232 237 245 247 247 249 244 248 238 175 189 208 231 266 274 275 270 263 259 255 250 249 247 230 222 230 234 234 236 229 213 199 197
318 319 317 318 312 308 311 312 306 287 248 239 254 270 331 343 323 320 290 272 267 212 190 202 216 217 199 184 187 198 218 225 221 189 173 193 204 202 210 200 210 222 203 202 211 231 248 239 210 216 184 188 220 216 221 235 230 229 238 248 252 250 256 255 227 228 226 235 249 260 270 262 253 249 246 241 232 235 236 225 223 228 232 234 232 224 211 201
319 318 319 319 312 314 318 308 289 236 224 245 252 241 276 315 317 321 298 262 242 175 152 172 195 191 148 132 175 197 217 219 229 208 173 195 211 193 209 209 211 223 206 204 214 237 249 212 124 215 189 201 227 217 214 226 239 229 223 236 248 260 272 271 265 264 257 253 239 234 250 257 247 245 241 235 222 218 222 228 228 223 224 229 230 226 221 210
318 318 321 317 316 322 316 299 290 250 253 248 206 154 234 313 322 312 285 257 225 164 153 177 184 155 157 175 177 194 222 212 219 214 177 194 216 204 211 204 205 227 212 207 215 237 245 192 157 219 222 217 228 222 213 212 237 247 220 227 238 253 270 264 263 264 254 269 259 212 251 273 262 255 243 232 241 228 207 218 231 225 222 225 226 223 220 218
316 317 320 313 317 326 314 325 337 290 260 164 99 118 291 324 316 294 260 253 222 159 150 165 168 155 168 172 172 192 218 164 188 205 187 194 209 212 228 204 190 226 225 219 221 217 236 213 170 218 224 221 226 222 214 207 226 245 223 224 238 243 253 251 251 254 255 269 259 200 243 268 271 272 257 226 240 245 223 217 222 226 238 245 252 241 226 226
314 317 318 309 315 317 297 305 303 282 315 65 64 278 327 323 286 256 245 242 165 144 151 137 122 159 177 166 187 206 88 123 178 193 184 196 203 203 230 222 204 214 212 227 227 177 199 215 200 211 219 220 224 221 213 206 227 251 244 223 255 255 255 255 251 248 252 260 256 236 239 254 258 265 265 239 215 231 242 225 196 200 302 322 312 288 258 242
315 316 313 310 316 311 278 279 273 273 340 7 282 301 318 294 266 239 252 252 143 144 158 132 138 186 187 173 198 215 206 194 209 173 174 195 210 212 234 236 228 219 200 213 236 185 179 212 213 211 218 222 222 224 216 201 220 257 273 235 247 259 256 254 255 254 251 248 255 255 246 254 260 254 263 253 219 227 243 166 71 27 339 319 301 293 277 254
313 310 312 310 314 319 277 253 249 260 288 290 278 299 283 262 244 224 224 216 172 157 147 157 167 180 184 184 192 201 207 203 147 154 176 189 203 218 244 242 242 238 205 202 236 239 160 151 218 226 225 229 226 224 220 214 220 246 273 245 236 238 240 243 247 255 258 244 244 253 251 254 262 258 260 259 91 23 40 77 68 8 305 272 249 252 258 249
308 305 307 299 295 307 289 246 232 245 242 270 290 277 252 228 237 237 194 153 191 157 159 183 171 170 194 211 197 182 198 196 157 171 188 183 192 206 222 224 231 238 216 198 227 237 191 161 206 225 226 234 234 226 219 217 224 229 236 242 236 227 227 232 234 236 247 250 246 249 250 248 249 258 284 72 59 39 43 56 56 55 289 263 236 218 237 240
303 300 295 282 274 273 263 252 35 22 216 283 287 246 233 208 225 242 166 152 204 165 169 185 174 186 208 227 207 175 189 195 174 182 190 187 191 195 208 214 194 211 220 203 211 226 215 207 207 200 211 226 228 221 209 205 219 225 224 232 236 230 222 227 232 225 230 246 253 259 256 249 248 253 87 82 60 40 47 37 16 7 311 268 243 206 218 169
300 297 289 276 263 253 249 254 282 283 267 285 265 226 235 227 219 239 190 175 146 98 130 178 192 224 217 218 200 176 189 191 177 189 193 192 196 195 207 216 203 210 226 210 211 220 216 214 208 199 197 207 218 220 201 193 207 216 218 223 229 229 224 229 236 235 239 243 244 244 245 252 255 212 90 93 78 66 70 57 24 356 313 285 270 137 134 128
301 294 281 268 252 244 245 249 255 262 260 253 238 212 230 240 217 242 239 171 98 90 183 190 225 233 225 235 206 174 201 196 177 189 191 189 202 200 203 214 213 218 227 220 220 222 225 220 207 206 192 186 207 227 226 210 206 211 221 229 234 237 237 241 247 246 252 253 235 216 218 258 256 132 95 74 61 49 55 69 84 114 322 311 359 79 132 145
306 292 269 252 242 238 235 232 231 240 238 228 226 212 213 234 223 210 220 100 90 191 188 186 235 231 218 230 213 193 224 206 186 197 197 194 205 203 200 208 212 215 222 222 214 220 236 236 196 204 207 194 201 220 236 239 221 204 216 229 233 238 239 248 270 283 286 280 250 213 224 261 212 107 95 85 86 80 79 102 104 84 68 38 70 82 90 118
311 281 241 223 227 226 216 214 210 214 228 224 220 216 211 233 266 320 19 26 20 299 266 215 223 234 216 197 196 202 201 201 206 207 206 208 206 205 206 202 204 211 220 225 212 211 232 235 191 197 209 211 209 211 221 237 243 204 208 226 228 231 239 245 257 262 260 263 259 240 242 239 166 91 61 71 101 118 123 105 80 74 75 67 66 68 71 88
302 259 210 193 199 198 192 194 192 200 225 233 221 231 236 225 322 18 19 346 316 298 281 241 199 224 232 200 190 195 178 188 219 214 212 216 208 208 213 205 201 210 219 230 231 218 238 244 197 195 208 214 220 222 215 219 235 234 218 227 224 226 238 248 250 243 236 247 251 244 247 243 213 158 62 70 79 86 95 91 81 78 78 76 66 55 53 50
290 255 187 153 149 162 173 175 183 197 217 234 230 245 268 226 95 4 2 332 300 268 266 263 198 217 248 226 196 191 178 185 210 213 219 216 200 220 232 211 200 211 217 223 225 207 236 244 202 208 219 203 200 227 222 208 217 234 244 246 240 236 230 222 230 237 237 241 247 242 243 252 48 103 137 107 100 104 98 91 85 80 86 98 100 83 63 46
275 243 165 136 136 150 160 166 185 206 213 226 228 228 245 238 125 12 332 300 283 269 262 272 255 225 248 246 220 201 205 208 208 213 219 208 191 330 302 242 201 222 223 222 225 199 223 249 214 211 215 188 181 214 223 203 205 226 242 237 240 254 248 236 234 240 246 244 245 248 240 217 64 91 146 121 123 141 129 104 93 86 85 86 86 80 66 46
246 219 142 140 146 147 156 173 197 212 211 225 240 196 201 221 173 165 295 278 264 266 276 287 258 227 244 260 259 239 231 227 213 213 220 225 211 241 286 266 213 219 224 232 241 212 209 243 224 203 203 191 191 206 217 215 199 209 228 225 224 231 230 240 237 230 254 264 258 256 247 59 32 37 94 92 98 111 111 111 104 84 71 63 54 50 47 41
227 215 146 155 160 150 161 192 205 212 213 220 255 224 131 40 216 166 166 258 266 270 290 295 282 267 271 271 253 231 240 243 223 215 213 260 288 207 200 296 286 240 220 220 227 224 221 231 228 228 217 206 217 220 219 229 224 209 214 219 224 227 227 235 233 219 224 243 262 261 229 113 326 333 52 69 70 78 91 104 103 81 64 55 43 36 36 38
228 200 141 157 168 163 181 211 202 219 226 193 273 42 98 63 276 187 169 207 237 247 243 260 274 276 272 275 272 257 269 262 240 237 212 118 354 341 142 278 278 271 254 217 195 240 304 258 239 235 225 232 269 258 226 240 261 244 230 228 226 228 237 242 242 240 235 243 285 282 237 151 160 350 59 70 72 76 78 79 83 75 60 46 35 29 31 33
211 140 132 159 176 188 212 218 191 210 227 135 269 139 114 195 228 217 201 200 216 232 224 235 255 252 246 277 296 290 288 270 253 270 226 118 95 312 307 268 245 247 260 249 121 117 254 246 243 238 229 231 258 270 247 230 247 251 245 244 236 228 237 248 258 294 276 272 300 288 255 153 132 103 77 80 77 69 59 54 57 61 52 40 32 28 29 30
185 129 145 171 186 208 233 229 202 184 159 186 216 182 158 231 240 250 227 199 209 226 233 248 249 245 246 256 271 276 301 268 244 269 290 133 131 154 356 347 243 240 267 10 35 234 228 230 236 240 234 215 223 259 245 218 226 239 233 258 296 263 243 242 249 341 288 264 251 259 280 81 103 105 94 94 90 75 58 51 53 50 42 38 36 33 30 29
175 142 159 172 187 217 244 281 276 179 151 186 208 180 181 185 188 292 279 224 252 265 259 257 233 240 263 250 248 257 258 246 248 284 312 227 118 102 63 48 35 38 51 31 350 248 243 279 250 243 241 223 230 262 247 234 259 254 238 34 352 287 265 259 238 226 248 256 255 270 348 71 76 100 112 102 84 72 57 48 51 47 38 39 39 37 34 31
176 154 159 161 185 220 245 275 270 228 170 183 192 196 216 191 141 236 260 233 229 250 259 266 242 233 255 261 253 247 230 212 232 239 243 243 122 97 77 60 53 48 42 14 349 273 236 253 231 243 256 236 191 188 276 312 311 311 315 335 247 261 274 283 253 243 255 266 264 73 90 100 73 40 100 80 60 57 50 38 41 41 34 40 45 42 38 33
205 178 168 163 183 202 214 214 215 218 181 190 194 199 218 206 145 163 223 234 234 242 242 257 257 237 244 263 258 254 253 226 221 231 237 262 303 91 102 95 70 50 354 340 359 319 246 244 240 269 284 278 212 157 125 315 305 325 324 303 293 322 338 283 255 287 338 279 248 108 118 126 105 53 61 62 52 51 49 38 37 37 31 34 42 46 42 34
219 185 148 157 203 179 183 204 178 130 169 198 226 215 200 197 174 167 201 214 199 222 230 230 245 235 229 261 248 232 255 248 223 233 251 269 287 112 99 28 73 78 256 3 36 354 263 277 327 338 315 304 278 196 167 226 257 294 331 328 343 8 29 13 344 13 5 291 248 107 118 115 91 62 56 55 52 55 53 43 39 39 34 29 29 36 37 31
223 194 136 142 244 130 101 106 144 148 174 197 191 198 200 187 178 175 194 209 189 204 232 225 230 227 206 253 260 225 241 261 215 149 294 295 290 295 353 347 16 25 23 85 67 22 301 301 335 356 333 306 286 241 210 227 233 282 15 14 4 9 32 28 10 9 4 12 97 103 101 82 62 56 56 51 53 62 58 44 41 37 32 29 29 34 34 29
252 166 139 176 161 105 98 122 175 160 149 203 184 170 186 173 170 180 180 199 198 204 244 234 229 246 235 262 271 210 143 310 4 92 347 294 259 303 92 178 246 1 17 72 88 57 234 204 61 27 325 308 297 276 241 226 199 118 36 29 22 12 22 29 17 11 8 17 90 122 109 81 60 62 62 53 54 59 52 42 39 33 29 30 31 34 32 27
290 331 273 217 140 126 142 148 190 170 154 207 195 157 183 178 161 183 161 179 214 201 242 249 244 269 254 252 265 185 123 341 308 11 343 316 301 331 325 178 217 301 94 158 160 203 235 238 167 253 273 311 292 264 225 189 172 124 48 29 25 20 22 32 34 27 12 354 339 147 107 87 100 91 73 63 55 51 45 38 34 32 31 33 33 33 32 30
274 248 248 244 135 176 193 148 194 191 134 72 97 149 196 179 141 179 157 246 239 200 192 283 282 270 242 223 219 74 22 326 312 315 314 301 295 293 281 260 265 262 210 193 215 209 247 263 243 255 275 269 268 255 205 193 201 156 46 19 16 23 22 38 50 37 17 4 359 21 55 68 113 109 83 68 55 47 42 34 27 29 32 34 36 34 33 34
Height
812 811 810 809 808 807 806 805 803 802 801 801 800 800 799 798 797 796 795 794 793 792 792 791 789 788 787 786 785 783 782 780 778 776 773 769 767 768 768 768 768 769 770 771 772 772 772 772 770 769 769 766 767 762 760 760 757 762 768 771 767 757 750 740 738 743 744 742 745 746 744 748 746 740 732 729 732 733 736 735 733 733 734 741 742 742 747 752
812 811 810 809 808 807 806 804 803 802 801 800 799 799 798 797 797 796 795 793 793 792 791 790 788 787 786 785 784 783 781 779 777 772 768 767 767 768 767 767 768 769 770 771 770 769 769 769 767 767 767 765 764 760 761 760 759 764 765 767 761 748 744 740 739 744 745 747 749 747 745 747 746 741 736 736 737 734 738 739 736 738 741 745 745 747 750 753
812 811 810 809 808 807 806 804 803 801 800 799 798 797 797 796 796 795 794 793 791 790 790 788 787 786 785 784 783 782 781 779 773 766 763 765 766 766 765 766 767 768 769 769 768 768 766 765 765 766 766 764 761 760 763 761 760 761 760 765 754 741 742 742 743 746 747 748 750 748 746 746 742 738 737 740 741 736 736 738 740 742 745 749 747 749 753 755
812 811 810 810 809 807 806 804 803 801 800 799 797 797 796 795 795 794 793 792 791 789 789 788 786 785 784 783 782 782 782 777 766 759 762 764 764 764 764 765 766 767 768 768 768 767 765 763 764 765 765 764 760 760 763 760 759 758 758 761 747 742 748 744 745 748 748 749 750 750 749 747 740 737 738 739 742 736 729 733 738 738 741 746 746 749 754 756
811 811 810 810 809 807 806 804 802 801 800 798 797 796 795 795 794 793 792 791 790 788 788 787 786 785 784 783 782 782 783 776 761 757 762 763 763 763 763 764 765 767 769 769 767 765 764 763 763 765 765 763 760 762 762 755 755 757 756 753 744 746 751 745 746 749 749 750 750 751 750 746 740 740 739 739 743 735 727 730 732 729 734 743 744 748 753 755
810 810 810 809 808 807 805 803 802 801 799 798 797 796 795 794 793 793 792 790 789 788 787 786 785 784 783 782 781 783 782 771 758 760 762 761 763 762 762 764 765 768 769 769 765 765 765 763 765 767 766 762 760 762 760 751 753 760 755 749 746 748 750 746 746 749 750 752 753 751 747 744 745 745 737 737 739 731 725 727 728 727 730 738 742 747 751 753
809 809 809 808 807 806 804 803 801 800 799 798 796 795 794 793 792 792 791 790 788 787 786 785 785 784 782 781 781 781 778 766 757 761 761 761 763 761 763 765 766 769 769 768 764 764 764 764 766 765 764 762 759 758 756 751 753 760 757 748 747 748 749 747 747 748 749 752 751 747 747 747 750 746 737 737 734 726 724 724 727 727 726 733 741 746 749 750
808 808 807 807 806 805 803 801 800 799 799 797 796 794 793 792 792 791 790 789 787 787 786 785 785 784 783 781 779 775 770 762 758 760 761 761 762 762 764 765 768 769 767 766 762 762 762 764 764 760 763 760 755 755 754 755 755 757 757 749 747 748 749 747 747 749 748 749 747 747 749 748 746 742 739 739 731 724 725 725 726 726 727 733 739 744 747 748
807 806 806 806 805 803 802 800 799 799 797 796 794 792 791 790 790 789 789 788 787 786 785 785 785 783 783 781 778 771 763 759 759 760 761 762 762 763 765 766 768 767 765 764 761 761 761 762 761 756 760 756 753 755 753 759 758 752 753 749 748 749 747 747 748 747 747 746 745 748 750 746 739 740 742 736 728 725 725 727 726 727 730 733 738 743 746 749
806 805 805 804 803 802 801 799 798 797 796 795 793 791 790 789 789 788 787 787 786 785 784 785 784 783 783 780 777 770 760 759 761 761 762 763 763 764 765 765 766 765 763 762 760 760 758 758 756 753 758 756 754 755 753 757 753 748 750 749 748 748 746 747 748 747 747 745 745 749 750 744 737 742 745 731 724 728 727 729 728 728 731 733 738 744 750 757
805 804 804 803 802 801 799 798 797 796 795 793 791 790 788 788 787 786 786 785 784 784 783 783 783 782 782 778 773 765 758 760 761 761 763 764 764 764 764 764 765 763 761 760 761 759 758 757 754 755 760 757 755 756 753 750 749 748 751 753 751 749 747 746 748 747 747 746 743 745 747 743 739 744 742 726 723 728 729 731 729 730 730 732 741 750 756 760
804 803 802 802 801 800 798 797 796 795 793 792 790 788 787 786 785 785 784 783 782 782 782 782 782 782 780 776 769 761 758 761 761 762 764 763 764 764 763 764 764 762 760 759 760 759 759 758 757 760 759 756 756 758 753 746 748 751 753 758 754 749 748 745 745 745 745 745 739 742 752 749 743 744 735 722 723 727 730 731 730 730 730 735 746 751 754 753
803 802 801 801 800 798 797 796 794 793 792 790 789 787 787 785 783 783 781 781 781 780 780 781 781 781 781 772 760 758 760 761 761 762 763 763 763 763 763 764 763 762 761 759 759 760 761 761 760 759 755 757 756 754 751 746 750 754 753 757 755 752 747 738 738 742 743 743 737 746 761 751 736 735 728 720 724 729 732 732 731 730 732 744 751 751 751 751
802 801 801 800 798 797 796 794 793 792 791 789 787 786 784 783 782 780 780 779 779 779 779 780 780 780 779 767 756 758 760 760 762 762 762 763 762 763 764 764 764 763 763 761 761 761 763 761 761 758 755 756 752 750 754 752 753 755 754 754 755 756 745 730 734 742 745 742 737 749 762 747 726 723 720 719 724 730 732 731 730 729 735 749 752 751 752 751
801 800 800 798 797 796 794 793 792 791 790 787 785 784 783 781 780 779 779 778 777 778 778 779 779 778 773 762 755 758 759 760 761 760 761 761 761 762 762 764 764 763 763 763 762 763 763 762 762 761 757 754 753 756 758 755 753 753 759 757 751 751 743 731 735 740 743 741 737 748 757 744 725 716 714 719 726 730 732 731 729 728 734 748 753 751 752 750
801 800 798 797 796 795 793 792 791 790 788 786 784 783 781 780 778 778 778 777 777 777 778 779 776 775 769 758 755 757 758 758 757 759 760 760 760 759 760 763 762 763 763 762 762 762 762 762 760 758 755 755 759 760 757 756 754 749 756 757 746 744 742 736 737 735 738 742 740 745 750 741 727 716 715 723 727 729 732 731 729 729 734 747 753 751 751 752
800 799 797 796 795 793 792 790 789 788 786 784 783 781 780 779 778 778 777 777 777 777 777 775 772 773 765 755 755 754 753 754 754 756 758 759 759 757 758 761 760 761 761 761 762 761 760 761 760 758 756 756 757 757 762 765 758 749 750 752 743 739 739 738 739 735 736 744 743 742 745 740 726 716 720 726 727 729 731 731 730 729 735 745 749 751 754 755
799 798 796 795 793 792 791 789 788 787 785 783 781 780 779 778 777 777 777 777 777 778 778 774 772 772 761 752 752 748 748 752 753 754 756 758 759 758 758 758 758 759 760 762 761 759 761 759 758 760 758 758 755 755 765 762 751 745 746 750 746 740 741 740 739 736 737 744 745 743 744 740 729 722 723 724 724 729 729 728 729 727 733 743 747 751 753 752
798 796 795 794 792 790 789 788 787 785 783 781 780 780 778 777 777 777 776 775 774 771 768 767 766 762 754 749 747 746 747 751 753 753 754 755 757 758 757 756 756 758 761 762 761 758 759 759 761 764 760 758 754 750 753 746 738 740 739 742 743 740 740 735 733 735 737 745 746 744 744 739 733 728 724 721 720 728 729 726 727 727 729 737 745 748 747 749
796 795 794 792 790 789 787 786 785 784 783 780 780 779 776 772 769 769 771 769 765 757 752 754 754 751 748 746 744 747 750 752 752 751 752 754 755 756 755 755 756 758 759 758 759 755 755 762 763 761 755 750 748 745 743 738 738 744 743 742 741 740 738 729 730 735 737 747 747 741 742 738 734 730 725 721 719 725 730 729 727 728 727 729 741 749 748 750
795 794 792 790 789 787 786 785 783 782 781 780 780 777 769 765 764 765 766 760 753 749 748 747 747 746 745 744 744 746 749 751 749 747 751 752 752 755 755 755 758 761 756 751 753 752 755 764 758 750 746 741 741 742 742 743 748 752 750 748 745 742 739 728 731 737 737 747 747 738 740 738 733 730 725 722 722 723 727 729 728 727 726 723 731 742 746 746
794 792 790 789 787 785 784 783 782 781 780 779 779 773 766 766 768 768 767 759 748 744 744 743 745 745 744 745 746 746 748 750 748 746 749 750 751 753 753 754 757 757 751 748 753 759 763 762 751 741 739 739 742 743 745 751 756 756 752 753 750 741 736 729 730 736 738 747 746 738 739 737 730 728 726 723 723 721 721 724 725 724 724 722 723 730 736 738
793 791 790 788 785 784 782 781 780 779 778 778 775 770 767 769 770 768 769 764 750 740 740 742 744 744 744 745 745 747 749 747 747 746 746 749 749 748 749 752 754 750 749 749 752 761 762 751 741 736 737 743 750 749 752 756 757 757 753 754 751 740 737 735 734 737 739 744 744 740 741 738 731 728 725 722 720 717 715 717 719 719 720 720 718 722 728 733
791 789 788 786 784 783 780 779 779 777 777 775 772 770 769 771 770 769 768 761 749 739 737 739 739 740 741 741 742 747 748 745 743 741 742 747 746 745 746 747 750 748 745 746 749 753 749 735 731 734 739 748 754 754 756 760 758 755 752 751 747 739 734 733 736 739 739 742 741 743 749 742 731 730 725 717 715 716 714 714 716 717 716 716 716 718 722 727
790 788 787 785 783 781 780 779 776 775 775 772 771 770 770 771 770 770 769 760 749 739 737 739 738 738 738 741 743 743 745 744 740 736 737 742 742 743 744 741 746 748 743 744 748 750 742 731 734 741 744 749 754 754 755 758 758 752 748 746 743 741 736 734 739 742 748 751 736 736 758 750 726 722 720 711 711 714 714 714 715 714 713 715 717 718 720 721
789 787 785 784 782 780 779 776 773 775 772 769 769 769 771 772 770 771 768 758 746 737 739 740 738 739 738 740 741 741 746 743 735 732 734 738 737 737 743 741 741 743 739 739 743 745 737 730 737 746 747 750 752 752 750 751 758 755 742 737 738 741 743 743 744 747 755 754 732 729 755 754 729 718 712 709 712 710 709 714 713 711 712 713 714 715 717 719
787 786 785 783 781 780 778 773 773 773 769 768 769 770 771 770 770 771 768 763 748 733 736 738 736 738 737 736 737 742 747 738 731 732 731 736 735 733 741 740 739 741 733 736 746 744 736 735 742 746 748 751 752 751 745 744 757 753 735 733 741 742 745 745 745 748 748 742 735 732 743 753 743 724 709 710 717 714 710 713 712 711 712 712 713 713 713 715
786 784 783 782 780 780 778 775 775 770 768 769 770 771 771 770 772 769 768 769 749 727 729 733 733 736 734 734 735 738 739 733 735 736 729 734 735 734 742 737 736 739 732 740 751 741 736 741 746 747 750 752 747 743 739 741 752 744 730 737 743 741 742 741 742 745 740 743 750 737 733 752 750 726 710 708 717 722 716 713 714 716 719 719 720 718 714 713
784 783 782 780 778 778 777 777 775 770 770 771 771 772 770 770 771 765 767 766 742 723 727 732 734 735 733 735 736 735 734 732 735 731 728 736 734 733 740 734 732 735 733 740 744 736 733 736 738 743 749 747 741 737 735 740 747 739 733 741 742 742 742 742 743 742 740 752 759 741 733 750 749 728 716 714 719 724 720 720 724 725 726 726 726 726 721 714
783 782 781 779 777 776 776 775 773 771 771 771 772 771 770 772 768 766 772 761 734 725 727 729 733 732 731 735 736 735 734 732 732 731 731 736 734 734 734 730 731 733 732 738 740 733 730 731 735 739 741 739 735 735 734 738 740 737 740 744 744 744 741 741 742 740 751 760 753 740 731 740 749 733 721 723 725 726 728 734 738 734 734 732 730 732 728 717
782 780 780 779 778 777 775 772 770 771 772 772 771 770 770 768 762 765 765 745 728 729 728 728 730 727 728 731 730 732 733 730 731 735 737 736 737 739 737 736 738 738 736 739 741 734 731 738 740 737 735 734 734 735 733 733 735 738 744 747 749 748 745 747 746 747 766 767 745 732 724 732 748 737 723 727 728 727 732 737 739 738 739 736 732 731 726 718
780 779 778 777 777 776 773 770 770 772 772 771 771 769 767 766 763 759 748 735 735 734 727 727 727 724 726 726 724 727 730 729 729 732 735 736 737 739 740 739 739 745 745 742 743 739 735 736 735 735 734 732 738 741 737 737 738 741 744 748 756 760 761 766 762 758 766 759 737 726 726 734 739 729 725 730 732 733 734 735 737 738 740 738 731 727 723 722
777 776 775 774 774 773 771 770 771 772 771 771 770 765 763 767 762 747 734 733 737 730 724 728 726 724 727 726 724 723 725 727 726 728 729 730 734 736 735 730 728 738 742 740 745 746 742 736 730 735 736 731 736 741 743 744 742 744 744 748 758 764 775 782 772 762 760 750 733 723 732 743 736 728 730 731 732 734 734 736 740 744 745 740 730 726 727 728
774 773 772 771 771 770 770 771 771 771 771 771 768 762 767 770 754 738 733 730 730 729 728 730 729 727 727 724 719 717 723 725 720 725 727 727 734 735 732 729 724 727 733 739 744 744 750 749 735 733 733 730 732 732 733 733 735 738 734 737 748 752 765 776 769 765 763 751 736 730 740 746 738 736 736 731 731 733 736 739 740 743 745 741 734 731 731 732
771 770 769 768 769 768 768 770 770 771 771 768 763 761 768 765 744 733 734 729 729 732 729 728 730 731 728 723 717 715 722 726 720 722 725 725 730 730 727 727 722 722 730 740 742 738 747 748 729 723 724 724 730 728 722 727 734 732 726 734 744 739 745 758 758 758 763 760 747 738 739 732 726 733 734 736 742 742 744 744 740 742 743 741 740 738 736 737
769 768 767 766 767 766 766 769 769 770 769 764 762 760 755 747 735 732 734 732 734 735 733 732 731 732 728 721 721 719 720 726 725 723 724 721 722 721 719 719 718 721 726 732 737 738 746 743 724 721 723 718 724 724 720 729 735 729 730 737 733 724 731 750 756 750 757 770 756 738 736 726 724 740 740 742 751 748 746 745 742 744 744 744 745 743 741 742
768 766 765 763 764 765 765 767 768 770 768 761 760 756 743 735 734 736 737 737 737 736 737 737 730 730 726 718 721 722 721 728 728 726 727 724 720 716 712 712 713 716 718 723 730 732 741 744 726 721 729 721 717 720 718 721 726 730 736 730 721 722 727 741 759 760 762 771 754 737 737 729 733 754 752 745 752 754 750 746 745 746 746 749 749 745 744 743
768 765 762 761 763 764 764 766 767 767 765 760 759 753 741 736 737 738 740 739 738 738 739 736 729 727 726 721 722 719 721 732 733 729 730 728 724 718 712 714 714 712 713 718 727 729 735 746 734 720 725 721 714 722 727 720 717 724 727 719 723 739 742 743 758 767 767 770 759 742 735 733 743 757 754 749 754 757 753 749 749 750 748 750 750 747 746 745
768 764 761 761 762 763 764 766 766 764 762 759 756 750 742 739 739 740 741 741 741 741 740 735 730 731 729 723 722 719 722 731 732 731 732 729 731 729 722 721 719 717 714 714 724 728 730 746 744 724 717 721 722 729 735 729 720 720 721 720 724 734 740 743 745 752 758 762 760 747 739 745 754 754 751 753 754 755 755 752 752 752 750 749 748 748 748 748
764 760 760 761 763 764 764 765 764 761 759 753 747 742 739 739 740 741 742 742 741 740 740 736 734 735 732 725 723 724 725 727 728 732 733 732 738 738 729 725 724 723 719 717 723 727 730 743 747 730 718 724 731 728 727 727 724 727 730 731 731 728 731 737 738 739 748 760 762 754 755 763 758 749 751 751 750 753 753 752 753 753 752 752 751 751 751 750
760 758 759 761 763 763 764 764 760 755 751 746 741 739 741 743 742 741 743 744 743 739 739 741 738 737 736 732 729 727 726 726 726 728 731 740 750 746 735 730 728 725 724 728 730 731 736 740 742 743 738 733 730 720 714 715 716 720 727 728 729 728 731 743 748 739 738 754 759 750 763 777 761 747 749 749 750 753 752 753 755 755 757 758 758 758 756 755
759 757 757 760 762 762 763 761 755 748 743 742 742 741 745 748 745 743 743 744 744 741 739 742 742 739 739 737 732 729 730 730 728 726 729 742 754 748 737 733 731 729 727 730 732 731 736 740 742 748 744 732 726 717 710 713 712 712 716 716 718 722 728 742 755 750 737 741 745 740 754 773 764 751 750 751 753 755 753 755 756 758 763 764 764 763 760 759
755 755 756 759 761 760 762 759 750 747 746 744 744 744 746 748 746 745 744 743 744 743 742 742 742 741 740 739 736 735 736 735 732 729 731 745 756 746 735 733 733 731 729 732 737 736 738 745 747 746 739 730 728 724 715 713 717 721 718 713 715 722 726 730 740 751 747 739 748 758 761 764 761 753 752 754 756 758 759 761 762 765 767 767 768 767 764 764
750 754 756 758 760 759 760 756 746 745 750 750 748 747 747 747 747 746 744 743 743 744 746 744 740 742 741 739 740 738 738 741 738 732 731 742 749 742 735 734 732 732 734 741 748 744 742 746 748 749 750 746 744 745 737 725 723 726 722 719 722 721 722 726 732 751 759 746 747 762 767 768 764 756 757 760 761 764 766 767 770 772 771 771 772 771 770 769
747 753 754 754 758 757 755 751 743 743 750 754 752 750 750 748 749 749 745 744 744 744 748 745 740 742 741 739 742 739 736 742 743 737 736 738 740 738 737 735 734 736 740 745 745 742 746 751 751 754 762 764 766 768 765 753 740 731 726 732 741 734 727 732 738 753 763 751 744 754 764 771 770 761 762 766 765 768 771 772 774 775 774 775 775 775 774 773
746 752 755 754 756 754 750 748 745 745 749 753 754 752 751 750 750 750 748 748 747 745 747 745 739 743 744 742 745 742 735 738 740 741 742 740 739 740 738 738 740 742 745 747 742 740 750 757 757 761 763 764 768 769 766 763 757 750 746 749 753 745 736 739 745 753 755 749 754 766 769 772 773 769 769 771 771 774 777 778 779 778 777 776 777 778 777 775
747 749 752 754 754 753 751 747 744 746 747 750 753 752 750 750 751 752 751 750 748 746 746 746 742 745 748 747 749 748 741 737 739 742 744 742 739 738 739 740 743 745 747 746 740 742 751 754 755 761 761 755 754 755 759 763 764 764 767 765 756 744 741 749 752 754 753 749 756 766 768 771 778 778 777 777 778 781 784 785 785 783 781 779 777 777 778 777
750 746 744 748 750 750 751 746 743 748 750 749 752 752 751 752 753 755 754 749 748 748 749 751 748 744 747 748 750 753 750 745 745 747 748 747 743 742 745 745 743 745 746 743 743 747 752 754 753 756 761 759 751 746 753 760 761 761 764 765 757 748 751 759 756 754 760 762 762 764 767 775 782 784 784 783 782 787 790 789 788 786 785 782 779 778 780 780
750 746 743 746 747 747 748 747 745 749 751 751 753 754 753 753 753 754 752 751 751 749 749 755 753 743 743 746 747 752 756 755 755 756 755 754 750 751 758 759 749 744 745 746 749 750 754 761 761 758 764 769 757 745 747 753 754 758 760 760 757 753 756 762 761 760 766 769 768 769 775 785 791 790 789 787 786 789 792 792 791 790 789 787 784 784 785 786
749 746 746 747 747 747 749 749 748 750 753 754 754 753 752 753 754 752 750 754 758 754 751 754 752 744 745 748 747 752 757 759 761 761 759 758 755 754 761 765 757 751 751 752 751 752 757 763 763 762 768 772 763 752 750 750 753 763 770 767 763 761 762 766 769 772 775 775 775 774 780 791 795 792 792 793 791 792 796 797 797 797 795 794 792 790 791 792
749 748 748 747 748 750 749 749 747 748 752 753 752 753 754 753 753 753 751 752 754 756 754 752 752 750 749 751 751 753 756 757 759 758 754 755 755 753 754 755 754 755 757 756 755 755 756 757 758 762 767 772 770 761 756 754 757 767 780 783 779 776 774 774 779 785 787 786 782 779 783 792 795 794 795 797 797 800 803 803 803 803 802 801 800 798 798 798
751 750 748 746 751 752 748 748 747 746 750 752 751 754 757 753 751 754 759 756 750 751 753 753 755 756 753 754 756 756 756 757 757 753 751 751 750 749 749 748 748 751 754 756 757 755 754 755 759 762 767 773 773 766 760 761 766 777 791 796 792 788 784 781 784 792 794 791 789 788 790 791 791 792 797 801 805 808 809 810 809 807 807 806 806 805 803 802